Location: Olsztyn
(53.7767°N, 20.4765°E)
Time: 15:17:49
(UTC+02:00)

Explorer 7 - All Passes

Search period start: 14 July 2024 00:00
Search period end: 24 July 2024 00:00
Orbit: 465 x 619 km, 50.3° (Epoch: 14 July)

Date Brightness Start Highest point End Pass type
(mag) Time Alt. Az. Time Alt. Az. Time Alt. Az.
14 Jul - 02:50:11 10° S 02:53:08 17° SE 02:56:03 10° ESE visible
14 Jul - 04:27:52 10° SW 04:32:07 41° SSE 04:36:14 10° E daylight
14 Jul - 06:07:07 10° W 06:11:30 55° S 06:15:40 10° ESE daylight
14 Jul - 07:46:48 10° W 07:50:48 35° SSW 07:54:36 10° SE daylight
14 Jul - 09:27:45 10° WSW 09:29:33 12° SW 09:31:18 10° SSW daylight
15 Jul - 02:41:37 10° SSW 02:44:57 20° SE 02:48:13 10° E visible
15 Jul - 04:19:42 10° WSW 04:24:01 45° SSE 04:28:12 10° E daylight
15 Jul - 05:59:03 10° W 06:03:25 54° S 06:07:35 10° ESE daylight
15 Jul - 07:38:47 10° W 07:42:39 31° SSW 07:46:23 10° SE daylight
15 Jul - 09:20:55 10° SW 09:21:18 10° SW 09:21:41 10° SW daylight
16 Jul - 02:33:09 10° SSW 02:36:45 23° SSE 02:40:18 10° E visible
16 Jul - 04:11:32 10° WSW 04:15:53 48° SSE 04:20:08 10° E daylight
16 Jul - 05:50:57 10° W 05:55:18 52° S 05:59:29 10° ESE daylight
16 Jul - 07:30:45 10° W 07:34:29 28° SSW 07:38:05 10° SSE daylight
17 Jul - 02:24:43 10° SSW 02:28:33 27° SSE 02:32:19 10° E visible
17 Jul - 04:03:20 10° WSW 04:07:45 51° S 04:12:02 10° E daylight
17 Jul - 05:42:49 10° W 05:47:10 50° S 05:51:20 10° ESE daylight
17 Jul - 07:22:43 10° W 07:26:17 24° SSW 07:29:42 10° SSE daylight
18 Jul - 00:41:10 10° SE 00:41:38 10° SE 00:42:07 10° SE visible
18 Jul - 02:16:20 10° SW 02:20:19 31° SSE 02:24:17 10° E visible
18 Jul - 03:55:10 10° WSW 03:59:36 53° S 04:03:54 10° E daylight
18 Jul - 05:34:41 10° W 05:39:00 47° SSW 05:43:09 10° ESE daylight
18 Jul - 07:14:43 10° W 07:18:02 21° SW 07:21:15 10° SSE daylight
19 Jul - 00:31:22 10° SSE 00:33:18 13° SE 00:35:15 10° ESE visible
19 Jul - 02:07:58 10° SW 02:12:06 34° SSE 02:16:12 10° E visible
19 Jul - 03:46:58 10° WSW 03:51:25 55° S 03:55:45 10° E daylight
19 Jul - 05:26:33 10° W 05:30:48 43° SSW 05:34:55 10° SE daylight
19 Jul - 07:06:45 10° W 07:09:45 18° SW 07:12:41 10° S daylight
20 Jul - 00:22:22 10° S 00:24:58 15° SE 00:27:36 10° ESE visible
20 Jul - 01:59:38 10° SW 02:03:52 38° SSE 02:08:03 10° E visible
20 Jul - 03:38:46 10° WSW 03:43:13 56° S 03:47:34 10° ESE visible
20 Jul - 05:18:22 10° W 05:22:35 39° SSW 05:26:39 10° SE daylight
20 Jul - 06:58:50 10° WSW 07:01:27 15° SW 07:03:59 10° S daylight
21 Jul - 00:13:34 10° S 00:16:38 18° SE 00:19:43 10° E visible
21 Jul - 01:51:18 10° SW 01:55:37 42° SSE 01:59:53 10° E visible
21 Jul - 03:30:33 10° W 03:35:00 56° S 03:39:22 10° ESE visible
21 Jul - 05:10:12 10° W 05:14:19 36° SSW 05:18:19 10° SE daylight
21 Jul - 06:51:04 10° WSW 06:53:05 13° SW 06:55:04 10° SSW daylight
22 Jul - 00:04:54 10° SSW 00:08:18 21° SE 00:11:43 10° E visible
22 Jul - 01:42:59 10° WSW 01:47:21 46° SSE 01:51:41 10° E visible
22 Jul - 03:22:18 10° W 03:26:47 55° S 03:31:08 10° ESE visible
22 Jul - 05:02:01 10° W 05:06:02 32° SSW 05:09:56 10° SE daylight
22 Jul - 06:43:44 10° WSW 06:44:42 11° SW 06:45:38 10° SSW daylight
22 Jul - 23:56:17 10° SSW 23:59:57 24° SSE 00:03:37 10° E visible
23 Jul - 01:34:40 10° WSW 01:39:05 49° SSE 01:43:27 10° E visible
23 Jul - 03:14:03 10° W 03:18:30 53° S 03:22:51 10° ESE visible
23 Jul - 04:53:50 10° W 04:57:42 28° SSW 05:01:28 10° SSE daylight
23 Jul - 23:47:43 10° SSW 23:51:34 28° SSE 23:55:27 10° E visible
